Location: Killam
(52.7910°N, 111.8608°W)
Time: 16:46:14
(UTC+00:00)

Vanguard 2 Rocket - Pass Details

Date: 23 February 2026
Orbit: 553 x 3286 km, 32.9° (Epoch: 11 March)

Event Time Altitude Azimuth Distance (km) Brightness Sun altitude
Rises 23:10:58 0° 267° (W) 7,047 12.4 13.3°
Reaches altitude 10° 23:17:29 10° 256° (WSW) 5,705 12.6 12.5°
Maximum altitude 23:28:26 22° 214° (SW) 3,949 11.6 11.2°
Drops below altitude 10° 23:36:29 10° 169° (S) 4,062 10.5 10.1°
Sets 23:40:08 0° 154° (SSE) 4,635 10.6 9.6°
